This is the latest recevied weather packets stored in our database for station/object N0NAI-13. If no packets are shown the sender has not sent any weather packets the latest 1 day(s).
| Time | Temp. | Humidity | Pressure | Rain* | Wind** | Luminosity | Snow |
|---|---|---|---|---|---|---|---|
| 1778061317 | -1.67° C | 83% | 1016.7 hPa | 0 mm | - | - | - |
| 1778060732 | -1.11° C | 83% | 1016.6 hPa | 0 mm | - | - | - |
| 1778060117 | -1.11° C | 83% | 1016.5 hPa | 0 mm | - | - | - |
| 1778058923 | -1.11° C | 82% | 1016.2 hPa | 0 mm | - | - | - |
| 1778058326 | -0.56° C | 82% | 1016.1 hPa | 0 mm | - | - | - |
| 1778057729 | -0.56° C | 81% | 1016.1 hPa | 0 mm | - | - | - |
| 1778057132 | -0.56° C | 81% | 1016 hPa | 0 mm | - | - | - |
| 1778056517 | -0.56° C | 81% | 1016 hPa | 0 mm | - | - | - |
| 1778055920 | 0° C | 80% | 1015.9 hPa | 0 mm | - | - | - |
| 1778055323 | 0° C | 79% | 1015.8 hPa | 0 mm | - | - | - |
| 1778054725 | 0.56° C | 78% | 1015.9 hPa | 0 mm | - | - | - |
| 1778054128 | 0.56° C | 77% | 1015.9 hPa | 0 mm | - | - | - |
| 1778053531 | 0° C | 78% | 1015.8 hPa | 0 mm | - | - | - |
| 1778052916 | 0° C | 79% | 1015.8 hPa | 0 mm | - | - | - |
| 1778052319 | 0° C | 78% | 1015.6 hPa | 0 mm | - | - | - |
| 1778051722 | 0.56° C | 78% | 1015.5 hPa | 0 mm | - | - | - |
| 1778051125 | 0.56° C | 76% | 1015.3 hPa | 0 mm | - | - | - |
| 1778050522 | 1.11° C | 76% | 1015.3 hPa | 0 mm | - | - | - |
| 1778049316 | 1.11° C | 75% | 1015.3 hPa | 0 mm | - | - | - |
| 1778048718 | 1.11° C | 75% | 1015.3 hPa | 0 mm | - | - | - |
| 1778048121 | 1.11° C | 75% | 1015.2 hPa | 0 mm | - | - | - |
| 1778047524 | 1.67° C | 74% | 1015 hPa | 0 mm | - | - | - |
| 1778046927 | 1.67° C | 74% | 1015 hPa | 0 mm | - | - | - |
| 1778045732 | 2.22° C | 72% | 1014.9 hPa | 0 mm | - | - | - |
| 1778044533 | 2.22° C | 71% | 1014.8 hPa | 0 mm | - | - | - |
* Rain latest hour (hover to see other rain measurements)
** Current wind speed in m/s (hover to see current wind gust speed)